AO-07 1 7530U 74089B 24261.22488547 -.00000020 00000-0 16796-3 0 9993 2 7530 101.9862 256.7560 0011848 269.0643 103.3121 12.53679536280814 AO-27 1 22825U 93061C 24261.44338401 .00000804 00000-0 32528-3 0 9995 2 22825 98.7793 315.1431 0008788 162.3522 197.7967 14.30586224616075 FO-29 1 24278U 96046B 24260.72847205 .00000079 00000-0 11896-3 0 9991 2 24278 98.5797 183.3798 0349294 311.2978 45.8570 13.53210397386810 ISS 1 25544U 98067A 24261.37246619 .00023609 00000-0 43150-3 0 9999 2 25544 51.6382 218.7497 0007547 3.3902 131.6134 15.49233959472849 SO-50 1 27607U 02058C 24261.20883445 .00007529 00000-0 10110-2 0 9994 2 27607 64.5548 298.5727 0026715 61.1860 299.1922 14.79687449170145 AO-73 1 39444U 13066AE 24261.36075201 .00034920 00000-0 31646-2 0 9999 2 39444 97.7275 218.7857 0045682 190.7113 169.3139 14.94447063584458 XW-2C 1 40906U 15049H 24261.52610148 .00182592 00000-0 29824-2 0 9994 2 40906 97.4722 281.2513 0004472 347.6421 12.4721 15.51895146498742 XW-2D 1 40907U 15049J 24261.52392549 .00327399 00000-0 30090-2 0 9990 2 40907 97.4625 285.1279 0001013 310.8220 49.2953 15.66670432499060 LILACSAT-2 1 40908U 15049K 24261.16586210 .00035633 00000-0 12551-2 0 9990 2 40908 97.5243 270.7005 0012592 37.1731 323.0378 15.29140813497533 XW-2E 1 40909U 15049L 24087.81329062 .07113575 25348-5 12295-2 0 9990 2 40909 97.3887 118.6826 0008261 229.8424 130.2149 16.32913615473412 XW-2F 1 40910U 15049M 24092.20923921 .16747303 26701-5 28112-3 0 9997 2 40910 97.4046 122.6776 0010391 231.3491 128.6883 16.47481859473951 XW-2B 1 40911U 15049N 24261.54918200 .00319580 00000-0 31391-2 0 9993 2 40911 97.4607 285.0657 0001251 332.2355 27.8837 15.65020102498924 IO-86 1 40931U 15052B 24231.70395842 .00002296 00000-0 22250-3 0 9993 2 40931 5.9997 265.9807 0013402 250.6059 109.2619 14.78018769480834 FOX-1 1 40967U 15058D 24260.91882131 .00006773 00000-0 60999-3 0 9991 2 40967 64.7759 93.9901 0190670 276.2007 81.7411 14.83474293 18594 CAS-2T 1 41847U 16066G 24261.20731186 .00004941 00000-0 72673-3 0 9992 2 41847 98.4530 331.8225 0350968 260.1049 96.0360 14.41797445412751 CAS-4B 1 42759U 17034B 24260.94398076 .00038596 00000-0 11726-2 0 9992 2 42759 43.0148 66.2971 0013388 251.3764 108.5636 15.33327872401466 CAS-4A 1 42761U 17034D 24260.93713003 .00037466 00000-0 11317-2 0 9996 2 42761 43.0188 64.6088 0013310 262.4942 97.4400 15.33524198401476 AO-91 1 43017U 17073E 24261.18495242 .00039397 00000-0 23059-2 0 9995 2 43017 97.5620 133.4903 0201809 346.0949 13.4762 14.96132881369402 PO-101 1 43678U 18084H 24261.20125721 .00009217 00000-0 82566-3 0 9993 2 43678 98.0825 61.9826 0010310 87.8580 272.3821 14.96006305320672 QO-100 1 43700U 18090A 24260.89424344 .00000135 00000-0 00000-0 0 9993 2 43700 0.0216 244.5461 0001116 275.9684 183.5363 1.00268987 21273 JO-97 1 43803U 18099AX 24260.70118334 .00019608 00000-0 11987-2 0 9998 2 43803 97.5114 317.4462 0008583 356.8065 3.3108 15.10262602316494 TO-108 1 44881U 19093C 24261.14867115 .00003044 00000-0 36923-3 0 9992 2 44881 97.8223 336.1533 0014697 27.2232 332.9750 14.84236111256684 RS-44 1 44909U 19096E 24260.81801034 .00000013 00000-0 79314-5 0 9993 2 44909 82.5219 43.8701 0217302 196.7223 162.6636 12.79733951220699 AO-109 1 47311U 21002C 24112.58294100 .09167436 99880-5 88771-3 0 9999 2 47311 60.6450 276.5573 0006279 285.8230 74.2218 16.37785734182462 UVSQ-SAT 1 47438U 21006AB 24261.44282309 .00470354 00000-0 36809-2 0 9993 2 47438 97.3103 324.2287 0006749 222.2890 137.7852 15.70193022203086 CSS 1 48274U 21035A 24261.23123347 .00056442 00000-0 57531-3 0 9991 2 48274 41.4674 241.9067 0002581 169.7447 190.3446 15.64214481193495 HO-113 1 50466U 21131B 24261.20662593 .00003269 00000-0 10524-2 0 9991 2 50466 98.5250 345.8479 0003896 197.4688 162.6366 14.39968553143248 Tevel-1 1 51013U 22002AF 24217.47990832 .17024539 25488-5 26344-3 0 9999 2 51013 97.3517 296.8662 0017808 259.4091 100.5207 16.47113739142696 Tevel-7 1 51062U 22002CG 24215.97230178 .05418465 24496-5 15072-2 0 9991 2 51062 97.3509 295.4378 0015078 264.3393 95.6180 16.27574534142457 Tevel-4 1 51063U 22002CH 24217.68533605 .05991808 24509-5 17243-2 0 9997 2 51063 97.3564 297.1077 0014984 266.4742 93.4837 16.27195964142710 Tevel-2 1 51069U 22002CP 24216.00863110 .06095772 24440-5 17929-2 0 9996 2 51069 97.3472 295.3558 0015472 266.0906 93.8617 16.26925185142466 HADES 1 51080U 22002DA 24138.97473861 .01172231 64229-3 32625-2 0 9996 2 51080 97.4039 222.9048 0007866 241.8685 118.1795 15.93809903130740 EASAT-2 1 51081U 22002DB 24142.74938777 .04626486 24555-5 17453-2 0 9990 2 51081 97.3942 227.5617 0013403 270.7229 89.2527 16.24102617131380 Tevel-3 1 50988U 22002E 24216.32026118 .06112943 24608-5 13272-2 0 9992 2 50988 97.3448 295.7406 0014751 266.8727 93.0880 16.30291923142513 Tevel-8 1 50989U 22002F 24216.68655818 .06045991 24594-5 14411-2 0 9995 2 50989 97.3519 296.2280 0015989 264.8635 95.0834 16.29228967142561 Tevel-5 1 50998U 22002Q 24200.23570604 .08580035 24925-5 11837-2 0 9990 2 50998 97.3564 280.3105 0016090 265.0303 94.9157 16.34769010140097 Tevel-6 1 50999U 22002R 24201.25211657 .14390351 25345-5 39579-3 0 9992 2 50999 97.3365 281.3486 0014741 257.2789 102.6865 16.44208008140259 TO-108 1 54684U 22167C 24261.19022337 .00169113 00000-0 42661-2 0 9999 2 54684 97.6137 48.7570 0008924 189.3262 170.7819 15.39148160 98409 INSPIRE-SAT 7 1 56211U 23054AK 24261.18489750 .04063853 24095-5 19677-2 0 9992 2 56211 97.3233 167.0530 0008242 163.9244 196.2309 16.21162577 80793 SO-121 1 58567U 23174CY 24260.46980769 .00180503 00000-0 32600-2 0 9991 2 58567 97.4414 337.3996 0011465 253.6459 106.3531 15.48995717 47807 MESAT-1 1 60209U 24125G 24261.31251945 .00063377 00000-0 27313-2 0 9990 2 60209 97.3123 111.9946 0025323 5.4073 354.7432 15.22035415 11412 NO-44 1 26931U 01043C 24260.88558516 .00000723 00000-0 30351-3 0 9996 2 26931 67.0496 94.6340 0007642 267.1474 92.8753 14.31374796199076 LEDSAT 1 49069U 21073D 24261.12715524 .00037158 00000-0 12722-2 0 9993 2 49069 97.4293 331.8882 0016168 319.0583 40.9442 15.30005835170481 IO-117 1 53106U 22080B 24254.10475933 -.00000003 00000-0 00000-0 0 9990 2 53106 70.1447 163.0235 0007964 88.1938 271.9634 6.42557210 50721 EOS-7 1 55562U 23019A 24260.67652963 .00146667 00000-0 17459-2 0 9994 2 55562 37.1781 9.2366 0003588 44.8971 315.2084 15.59715078 90533 SONATE-2 1 59112U 24043Q 24261.33357114 .00057496 00000-0 24970-2 0 9998 2 59112 97.4880 24.4120 0013599 334.5499 25.5066 15.22012193 29802